Flag for Pakistan Weather past 2 weeks in Narowal, Pakistan

Now
41 °F

Fog.


Feels Like: 41 °F
Forecast: 38 / 62 °F
Wind: No wind

Location: Amritsar Airport

Current Time: Jan 29, 2015 at 6:09:44 AM

Latest Report: Jan 29, 2015 at 5:30 AM


Visibility: 1 mi

Pressure: 30.04 "Hg

Humidity: 100%

Dew point: 41 °F

Location of NarowalLocation

Historic Weather in Narowal — Graph

°F

Narowal temperature yesterday

Maximum temperature yesterday: 63 °F (at 1:30 PM)
Minimum temperature yesterday: 34 °F (at 7:30 AM)
Average temperature yesterday: 48 °F

Past Weeks' High & Low Weather Summary

 TemperatureHumidityPressure
High68 °F (Jan 17, 1:30 PM)100% (Jan 14, 4:00 AM)30.24 "Hg (Jan 14, 4:00 AM)
Low34 °F (Jan 28, 7:30 AM)39% (Jan 28, 3:30 PM)29.95 "Hg (Jan 14, 4:00 AM)
Average52 °F86%30.11 "Hg
* Reported Jan 14 4:00 AM — Jan 29 4:30 AM, Narowal, Weather by CustomWeather, © 2014

Note: Actual official high and low records may vary slightly from our data, if they occured in-between our weather recording intervals... More about our weather records

Advertising

Narowal weather history for previous 24 hours

 ConditionsComfort  
Time TempWeatherWind HumidityBarometerVisibility
4:30 AM
Jan 29
41 °FFog.No wind100%30.04 "Hg1 mi
4:00 AM45 °FFog.No wind87%30.04 "Hg1 mi
3:30 AM43 °FFog.No wind93%30.04 "Hg1 mi
3:00 AM43 °FFog.No wind93%30.04 "Hg1 mi
2:30 AM43 °FFog.No wind93%30.04 "Hg1 mi
2:00 AM45 °FFog.No wind87%30.04 "Hg1 mi
1:30 AM43 °FFog.No wind93%30.07 "Hg1 mi
1:00 AM43 °FFog.No wind87%30.04 "Hg1 mi
12:30 AM43 °FFog.No wind87%30.07 "Hg1 mi
12:00 AM43 °FFog.No wind93%30.07 "Hg1 mi
11:30 PM
Jan 28
43 °FFog.No wind93%30.07 "Hg1 mi
11:00 PM45 °FFog.No wind81%30.07 "Hg1 mi
10:30 PM45 °FFog.No wind81%30.07 "Hg1 mi
10:00 PM45 °FFog.No wind81%30.07 "Hg2 mi
9:30 PM45 °FFog.No wind81%30.07 "Hg2 mi
9:00 PM46 °FFog.No wind82%30.07 "Hg2 mi
8:30 PM48 °FFog.No wind71%30.04 "Hg2 mi
8:00 PM46 °FFog.No wind76%30.04 "Hg2 mi
7:30 PM48 °FFog.No wind71%30.04 "Hg2 mi
6:30 PM52 °FHaze.No wind67%30.01 "Hg2 mi
6:00 PM54 °FHaze.No wind63%30.01 "Hg2 mi
5:30 PM59 °FHaze.No wind48%30.01 "Hg2 mi
4:30 PM61 °FHaze.6 mph42%30.01 "Hg2 mi
4:00 PM63 °FHaze.7 mph39%30.01 "Hg2 mi
3:30 PM63 °FHaze.8 mph39%30.01 "Hg2 mi
3:00 PM63 °FHaze.8 mph42%30.01 "Hg3 mi
2:30 PM63 °FHaze.9 mph42%30.04 "Hg3 mi
2:00 PM63 °FHaze.10 mph45%30.04 "Hg3 mi
1:30 PM63 °FHaze.9 mph42%30.04 "Hg3 mi
1:00 PM61 °FHaze.8 mph55%30.07 "Hg3 mi
12:30 PM59 °FHaze.8 mph55%30.07 "Hg3 mi
12:00 PM57 °FHaze.9 mph59%30.09 "Hg3 mi
11:30 AM57 °FHaze.8 mph59%30.09 "Hg2 mi
11:00 AM55 °FHaze.1 mph67%30.12 "Hg2 mi
10:00 AM50 °FFog.3 mph82%30.12 "Hg2 mi
9:30 AM46 °FFog.No wind100%30.12 "Hg2 mi
8:00 AM37 °FFog.No wind100%30.09 "Hg1 mi
7:30 AM34 °FFog.No wind100%30.07 "Hg1 mi
Weather by CustomWeather, © 2014

See weather overviewHow to use our weather pages